1st Responders/1st Detectors/Storm Spotters Weather Summary for Jessamine County, KY

Forecast Maps


Reg. NEXRAD Animation


National Fire Danger: Day 1 & 2 Map

Current NWS Watch/Warnings

SPC Convective Day 1 Outlook


Day 2 Outlook

(Click images to enlarge|Page will refresh every 5 minutes)
UK Ag. Weather Center Desktop Severe Weather Service[HERE]
Jessamine County, KY Hazardous Weather Outlook Webcast
(9 AM to 9 PM Mon-Fri)
[Fast]
[Dial-up]


UKAWC 1st Detectors/1st Responders Precision Weather Forecast For JESSAMINE County, Kentucky
(based on the NWS County Digital Forecast)

ISSUED AT 19:00 UTC ON FRIDAY JAN 17 2020
DAY FRIDAY
EDT 3HR 4P 5P 6P 7P
MAX/MIN -- -- -- 36°
TEMP 36° 36° 36° 36°
SKY COVER 86% 88% 90% 93%
Clouds
DEW PT 18° 18° 18° 18°
RH 47% 47% 48% 49%
POP 12HR -- -- -- --
RAIN/SNOW (liq.equ) -- -- -- --
SNOWFALL -- -- -- --
WIND SPEED(MPH) 10 14 14 13
WIND Gust(MPH) 16 16 15 15
WIND DIR E E E E
DEW -- -- -- --
HeatIndex 29 28 28 27
Rain -- -- -- --
WIND CHILL 29° 27° 27° 28°
SPRAY COND
DRY COND
LIVESTOCK COLDSTRESS



DAY SATURDAY SUNDAY MONDAY TUESDAY WEDNESDAY THURSDAY
EDT 6HR 8P 9P 10P 11P MIDN 1A 2A 3A 4A 5A 6A 7A 8A 9A 10A 11A NOON 1P 2P 3P 4P 5P 6P 7P 8P 9P 10P 11P MIDN 1A 2A 3A 5A 8A 11A 2P 5P 8P 2A 8A 2P 8P 2A 8A 2P 8P 2A 8A 2P 8P 2A 8A 2P 8P
MAX/MIN -- -- -- -- -- -- -- -- -- -- -- -- 34° -- -- -- -- -- -- -- -- -- -- 54° -- -- -- -- -- -- -- -- -- 22° -- -- 29° -- -- 16° 27° -- -- 16° 34° -- -- 20° 43° -- -- 29° 49° --
TEMP 34° 34° 34° 36° 36° 36° 38° 38° 40° 43° 43° 43° 43° 43° 43° 45° 47° 50° 52° 52° 49° 47° 47° 47° 45° 43° 40° 36° 34° 31° 29° 27° 25° 23° 23° 27° 27° 23° 18° 16° 22° 23° 20° 18° 29° 27° 22° 22° 38° 34° 29° 29° 45° 40°
SKY COVER 95% 95% 95% 95% 95% 95% 95% 96% 96% 97% 98% 99% 100% 100% 100% 100% 100% 99% 97% 97% 97% 97% 91% 85% 79% 76% 69% 65% 64% 61% 60% 61% 65% 56% 54% 28% 30% 14% 24% 44% 43% 37% 25% 20% 18% 11% 14% 22% 43% 64% 73% 74% 60% 69%
Clouds
DEW PT 18° 18° 20° 20° 22° 22° 23° 23° 25° 25° 27° 29° 31° 34° 36° 38° 40° 40° 41° 41° 40° 40° 38° 36° 36° 36° 31° 27° 25° 22° 20° 18° 16° 13° 11° 11° 11° 13° 13° 16° 16° 20° 22° 25°
RH 51% 51% 53% 54% 56% 56% 56% 54% 52% 50% 52% 55% 60% 67% 76% 79% 73% 68% 66% 66% 70% 73% 73% 68% 70% 76% 70% 70% 69% 65% 65% 65% 64% 62% 59% 45% 41% 47% 54% 61% 47% 49% 61% 67% 41% 52% 59% 67% 35% 47% 57% 65% 40% 57%
POP 12HR 13% -- -- -- -- -- -- -- -- -- -- -- 65% -- -- -- -- -- -- -- -- -- -- -- 99% -- -- -- -- -- -- -- -- 6% -- -- -- 1% -- 3% -- 0% -- 0% -- 2% -- 0% -- 1% -- 2% -- 6%
RAIN/SNOW (liq.equ) 0.00in -- -- -- -- -- 0.01in -- -- -- -- -- 0.04in -- -- -- -- -- 0.34in -- -- -- -- -- 0.08in -- -- -- -- -- 0.00in -- -- 0.00in -- 0.00in -- 0.00in 0.00in 0.00in -- -- -- -- -- -- -- -- -- -- -- -- -- --
SNOWFALL 0in -- -- -- -- -- 0in -- -- -- -- -- 0in -- -- -- -- -- 0in -- -- -- -- -- 0in -- -- -- -- -- 0in -- -- 0in -- 0in -- 0in 0in 0in -- -- -- -- -- -- -- -- -- -- -- -- -- --
WIND SPEED(MPH) 13 13 10 10 10 10 10 13 14 15 15 17 18 21 22 23 23 23 22 22 21 21 21 18 18 16 15 15 15 14 14 14 13 10 13 10 9 7 7 6 7 5 6 2 2 0 0 1 2 1 5 2 6 5
WIND DIR E E E E SE SE SE SE S S S S S S S S S SW SW SW SW SW SW W W W W W W W W W W W W W W NW NW NW NW NW N N N N E E S E S S S SE
HeatIndex 26 26 26 27 27 29 30 31 33 35 35 36 35 35 35 36 47 50 52 52 49 47 47 47 37 35 33 27 24 22 19 16 14 13 12 16 18 14 9 7 14 18 12 13 25 27 22 22 36 34 25 26 45 36
Rain -- Slight Chance Slight Chance Slight Chance Chance Chance Chance Chance Chance Likely Likely Likely Definite Definite Definite Definite Definite Definite Likely Likely Likely Chance Chance Chance -- -- -- -- -- -- -- -- -- -- -- -- -- -- -- -- -- -- -- -- -- -- -- -- -- -- -- -- -- --
WIND CHILL 25° 25° 26° 29° 29° 29° 31° 30° 32° 36° 36° 35° 35° 34° 34° 37° -- -- -- -- -- -- -- -- 37° 35° 32° 27° 24° 21° 19° 16° 14° 13° 11° 18° 18° 15° 14° 17° 12° -- -- -- -- -- -- -- 24° -- 42° 37°
SPRAY COND
DRY COND
LIVESTOCK COLDSTRESS

Click on individual weather variable above in left-hand column (ie., TEMP, RH, QPF 12HR) to view state forecast maps






NWS 48 Hr. Forecast Maps,

Regional Hourly Observations For JESSAMINE County, Kentucky
Issued at 200 PM EST FRI JAN 17 2020
NORTHEAST KENTUCKY
  
CITY           SKY/WX    TMP DP  RH WIND       PRES   REMARKS
LEXINGTON      FAIR      36  17  46 E9        30.60F WCI  29          
COVINGTON      CLOUDY    32  16  51 SE14      30.62F WCI  22          
FRANKFORT      FAIR      34  19  54 E10       30.59F WCI  26          


Current NOWCAST not available:
Nowcasts are not issued routinely during fair weather. Only when
precipitation or other significant weather is occuring in this county will these
forecasts be issued. Currently, there is no short term forecast in effect.


Fire Weather Forecast For JESSAMINE County, KY
Provided by the National Weather Service:

Issued at: Fri Jan 17 14:05:01 EST 2020


                      Today        Tonight      Sat          

CLOUD COVER           Mcldy        Cloudy       Cloudy       
PRECIP TYPE           None         Rain         Rain         
CHANCE PRECIP (%)     0            70           100          
TEMP (24H TREND)      37 (-7)      33 (+11)     55           
RH % (24H TREND)      41 (-1)      83 (+9)      65           
20FTWND-VAL/AM(MPH)   E  7                      S 16 G31     
20FTWND-RDG/PM(MPH)   E  8         E  8         SW 17 G31    
PRECIP AMOUNT         0.00         0.06         0.42         
MIXING HGT(FT-AGL/MSL)2154                      385          
TRANSPORT WND (MPH)   E 15                      S 31         
VENT RATE (KT-FT)     25848                     11430        
DISPERSION            Poor                      Poor         
DSI                   STBL         STBL         STBL         
LAL                   1            1            1            
HAINES INDEX          4            3            2            
ADI EARLY             25 FAIR      11 POOR      28 FAIR      
ADI LATE              26 FAIR      26 FAIR      0 VERY POOR  
MAX LVORI EARLY       3            2            6            
MAX LVORI LATE        2            3            6            

REMARKS...ADI IS ATMOSPHERIC DISPERSION INDEX BY LAVDAS.        
LVORI IS LOW VISIBILITY OCCURRENCE RISK INDEX.

.SUNDAY...Partly cloudy. Lows in the lower 20s. Highs in the
upper 20s. West winds around 10 mph. 
.MONDAY...Partly cloudy. Lows around 15. Highs in the upper 20s.
Northwest winds up to 5 mph. 
.TUESDAY...Mostly clear. Lows around 17. Highs in the mid 30s.
Northwest winds up to 5 mph. 
.WEDNESDAY...Partly cloudy. Lows in the lower 20s. Highs in the
lower 40s. Southeast winds up to 5 mph. 
.THURSDAY...Mostly cloudy. Lows in the upper 20s. Highs in the
upper 40s. South winds up to 5 mph. 

SPC's Fire Weather Web Tool (Excellent!), SPC's Fire Weather Outlooks, NWS Fire Weather WEB, Fire Danger Class Map,
Keetch-Byram Drought Index, ROMAN Web, Haines Index ,
WFAS's 10-hr Dead Fuel Moist., WFAS's 100-hr Dead Fuel Moist., Probablity of Ignition, Visual blackness Map, Palmer Drought Index, HPC's Rainfall Forecast Maps


Hazardous Weather Outlook For JESSAMINE County, Kentucky
311 AM EST Fri Jan 17 2020 /211 AM CST Fri Jan 17 2020/

 DAY ONE  Today and Tonight.

Precipitation this evening may begin briefly as a wintry mix, mainly
north of Interstate 64. No snow or ice accumulation is expected due
to warm ground temperatures, and a quick change to all rain. 

 DAYS TWO THROUGH SEVEN  Saturday through Thursday.

Wind gusts around 40 mph out of the south and southwest will be 
possible on Saturday ahead of a strong cold front. 

 SPOTTER INFORMATION STATEMENT  

Spotter activation will not be needed.

Latest JESSAMINE County, Kentucky Watches, Warnings and Advisories.
Additional Drought Info.: UKAWC Drought Page, Kentucky Drought Watch


7-Day Forecast For JESSAMINE County, KY

TODAY
Partly cloudy in the morning then becoming mostly cloudy. Highs in the upper 30s. East winds 10 to 15 mph.

TONIGHT
Cloudy with a 40 percent chance of rain. Lows in the mid 30s. Southeast winds 5 to 15 mph with gusts to around 30 mph.

SATURDAY
Breezy, rain. Highs in the mid 50s. Southwest winds 15 to 25 mph with gusts to around 40 mph. Chance of rain near 100 percent.

SATURDAY NIGHT
Partly cloudy. Lows in the lower 20s. West winds 10 to 15 mph with gusts to around 35 mph.

SUNDAY
Colder. Partly cloudy. Highs around 30. West winds 10 to 15 mph.

SUNDAY NIGHT
Mostly clear. Lows around 15.

MARTIN LUTHER KING JR DAY
Partly cloudy. Highs in the upper 20s.

MONDAY NIGHT
Partly cloudy. Lows around 17.

TUESDAY
Mostly sunny. Highs in the mid 30s.

TUESDAY NIGHT
Mostly clear. Lows in the lower 20s.

WEDNESDAY
Partly cloudy. Highs in the lower 40s.

WEDNESDAY NIGHT
Mostly cloudy. Lows in the upper 20s.

THURSDAY
Partly cloudy. Highs around 50.

Ag Weather Center, Department of Biosystems & Agricultural Engineering, University of Kentucky